Regional Weather Roundup
Issued by NWS Charleston, SC

Current Version | Previous Version | Graphics & Text | Print | Product List | Glossary On
Versions: 1 2 3 4 5 6 7 8 9 10 11 12 13 14 15 16 17 18 19 20 21 22 23 24 25 26 27 28 29 30 31 32 33 34 35 36 37 38 39 40 41 42 43 44 45 46 47 48 49 50
000 ASUS42 KCHS 201127 RWRCHS REGIONAL WEATHER ROUNDUP NATIONAL WEATHER SERVICE CHARLESTON SC 600 AM EST FRI JAN 20 2017 NOTE: "FAIR" INDICATES FEW OR NO CLOUDS BELOW 12,000 FEET WITH NO SIGNIFICANT WEATHER AND/OR OBSTRUCTIONS TO VISIBILITY. NOT ALL STATIONS ARE QUALITY CONTROLLED. USE DATA WITH CAUTION... ESPECIALLY DEWPOINT OBSERVATIONS. SCZ027-030-031-034>040-042>050-201200- ...SOUTHEAST SOUTH CAROLINA... CITY SKY/WX TMP DP RH WIND PRES REMARKS N CHARLESTON CLOUDY 58 55 90 S6 29.90F WATERFRONT PRK N/A 58 57 96 VRB2 29.89F MOUNT PLEASANT LGT RAIN 55 55 100 CALM 29.91R JOHNS ISLAND FAIR 57 57 100 CALM 29.91S PINOPOLIS N/A 57 55 94 SE5 29.81F MONCKS CORNER FAIR 54 52 94 CALM 29.90S SUMMERVILLE FAIR N/A N/A N/A CALM 29.91S BEAUFORT MCAS CLOUDY 62 59 90 S3 29.89F BEAUFORT ARPT PTSUNNY 61 59 94 S5 29.89S HILTON HEAD IS NOT AVBL WALTERBORO CLOUDY 55 55 100 CALM 29.90F ALLENDALE CLOUDY 61 57 88 SE6 29.87R ...SOUTHERN MIDLANDS AND PEE DEE... CITY SKY/WX TMP DP RH WIND PRES REMARKS GEORGETOWN FAIR 52 52 100 CALM 29.91R KINGSTREE PTSUNNY 54 50 87 SE3 29.90R ORANGEBURG LGT RAIN 58 55 90 SE9 29.86F BARNWELL FAIR 61 59 94 CALM 29.87R AIKEN PTSUNNY 55 54 94 CALM 29.90R MANNING PTSUNNY 54 43 66 CALM 29.90S COLUMBIA CLOUDY 59 55 87 CALM 29.86S SUMTER CLOUDY 55 52 88 S5 29.85F FLORENCE CLOUDY 53 51 93 CALM 29.90S MYRTLE BEACH CLOUDY 57 52 82 SE5 29.92F N MYRTLE BEACH CLOUDY 59 52 77 E6 29.90F $$ GAZ063-065-086>088-099>101-113>116-118-119-134>141-150-201200- ...SOUTHEAST GEORGIA... CITY SKY/WX TMP DP RH WIND PRES REMARKS SAVANNAH ARPT CLOUDY 60 57 89 S7 29.89F HUNTER AAF CLOUDY 61 61 100 S5 29.87S FORT STEWART CLOUDY 60 57 92 SE3 29.85F STATESBORO MOCLDY 60 60 100 CALM 29.87S SYLVANIA CLOUDY N/A N/A N/A S3 29.88S CLAXTON PTSUNNY N/A N/A N/A CALM 29.87R ...CSRA...CENTRAL AND FAR SOUTHEAST GEORGIA... CITY SKY/WX TMP DP RH WIND PRES REMARKS THOMSON PTCLDY 63 63 99 CALM 29.88F AUGUSTA-BUSH CLOUDY 61 57 87 E5 29.85R AUGUSTA-DANIEL CLOUDY 60 55 83 CALM 29.86R SWAINSBORO FAIR 61 61 100 S3 29.87S VIDALIA CLOUDY 63 63 100 CALM 29.86S EASTMAN CLOUDY 63 63 100 CALM 29.89R HAZLEHURST FAIR 63 63 100 S3 29.85S ALMA MOCLDY 63 63 100 S7 29.86F WAYCROSS CLOUDY 66 66 100 S9 29.86F JESUP FAIR 63 59 88 SW3 29.88F BAXLEY FAIR 63 63 100 S6 29.86R BRUNSWICK CLOUDY 64 63 94 SE7 29.90F SAINT SIMONS CLOUDY 65 61 87 SW8 29.91S $$ SCZ027-028-034-036>038-045-046-048>050-GAZ119-141-201200- ...LAKE AND SUPPLEMENTAL COASTAL OBSERVATIONS... STATION/POSITION TIME TEMP WIND PRES WAVE SWELL AIR SEA DIR/SP/G HT/PER HT/PER/DIR (UTC) (F) (DEG/KT/KT) (MB) (FT/S) (FT/S/D) WINYAH BAY 1045 56 60/ 3 1012.0F LAKE MURRAY 1050 57 140/ 3/ 5 1010.8R ACE BASIN NERRS 1045 57 CALM 1012.0F FORT PULASKI 1100 61 58 190/ 2/ 5 1012.4 SAPELO ISLAND 1100 62 200/ 8 1013.0 $$ ANZ835-935-AMZ111-154-330-350-352-354-370-450-454-472-201200- ...C-MAN AND BUOY OBSERVATIONS... STATION/POSITION TIME TEMP WIND PRES WAVE SWELL AIR SEA DIR/SP/G HT/PER HT/PER/DIR (UTC) (F) (DEG/KT/KT) (MB) (FT/S) (FT/S/D) BUOY 41004 1050 70 71 200/ 8/ 10 1012.1F 2/ 9 2/110/ 9 BUOY 41008 1050 62 59 180/ 10/ 12 1012.0F 2/10 2/ 70/10 FOLLY BEACH CMAN 1100 58 CALM / 1 1013.0F CAPERS NEARSHORE 1008 56 55 110/ 2/ 4 1012.6F FRIPP NEARSHORE 1108 60 57 220/ 4/ 6 1012.5R STATION/POSITION TIME TEMP WIND PRES WAVE SWELL AIR SEA DIR/SP/G HT/PER HT/PER/DIR (UTC) (F) (DEG/KT/KT) (MB) (FT/S) (FT/S/D) 5E ST. MARYS GA 1100 64 N/A 1/11 FRYING PAN BUOY 1110 71 71 150/ 10/ 14 1012.0 BUOY 41025 1050 59 76 70/ 6/ 8 1015.0F 5/13 5/ 80/13 CAPE LOOKOUT NC 1100 62 90/ 9/ 10 1013.7F BUOY 41002 1050 68 71 160/ 6/ 10 1015.1F 5/ 9 5/ 10/ 9 BUOY 41010 NOT AVBL ST AUGUSTINE FL 1100 63 62 200/ 7/ 9 1014.6F $$

USA.gov is the U.S. government's official web portal to all federal, state and local government web resources and services.